sat.trackr.live / text

‹ back to catalog

STARLINK-5321

NORAD 55302 · 2023-010AK

PAYLOAD ACTIVE UNKNOWN

§ Identity

Operator
Country
US
Launch date
2023-01-19
Launch site
AFWTR
Launch vehicle
Mass (kg)
RCS (m²)

Purposes: comms

External: N2YO · Heavens-Above · Gunter

§ Orbital elements

Epoch: 2026-05-25T03:28:24.608064Z

Period
96.11 min
Inclination
69.9988°
Eccentricity
0.0003438
Mean motion
14.98330872 rev/d
Perigee alt
569.7 km
Apogee alt
574.4 km
Semi-major
6,950.2 km
B*
8.1643e-5
RAAN
191.5895°
Arg perigee
268.6798°
Mean anomaly
91.3967°
Rev number
18,472

§ Raw data

STARLINK-53211 55302U 23010AK  26145.14472926  .00000881  00000+0  81643-4 0  99962 55302  69.9988 191.5895 0003438 268.6798  91.3967 14.98330872184720

JSON: /api/v1/satellites/55302 · /tle

For live sub-satellite position, see the globe view (requires WebGL).

§ Visibility from observer

Set your observer location to see the next 7 days of passes ≥ 10°. The values pass through the URL so the page stays shareable.

No JS? Fill the form by hand. The geolocation button needs JavaScript.